FW1247 Weather Reports


time (UTC)temp
F
wind
direction
speed
knots
gust
knots
rain 1hr
in
rain 24hr
in
rain mn
in
humidity
%
barometer
mb
20260507171604 55 140 0.0 3.5 0.00 0.00 0.00 51 1014.6
20260507164600 55 131 3.5 7.0 0.00 0.00 0.00 52 1014.4
20260507163053 56 101 5.2 9.6 0.00 0.00 0.00 50 1014.3
20260507161554 56 131 5.2 7.8 0.00 0.00 0.00 50 1014.2
20260507160054 56 360 5.2 7.8 0.00 0.00 0.00 49 1014.2
20260507154554 56 89 6.1 10.4 0.00 0.00 0.00 50 1014.1
20260507153048 56 99 4.3 10.4 0.00 0.00 0.00 51 1014.0
20260507151548 56 92 6.1 9.6 0.00 0.00 0.00 50 1014.0
20260507150047 56 153 5.2 9.6 0.00 0.00 0.00 51 1013.9
20260507144545 57 115 4.3 11.3 0.00 0.00 0.00 48 1013.7
20260507143044 57 101 7.0 11.3 0.00 0.00 0.00 46 1013.5
20260507141542 57 112 6.1 11.3 0.00 0.00 0.00 46 1013.6
20260507140036 57 93 6.1 12.2 0.00 0.00 0.00 47 1013.6
20260507134534 57 94 5.2 9.6 0.00 0.00 0.00 48 1013.7
20260507133027 57 69 6.1 11.3 0.00 0.00 0.00 47 1013.8
20260507131530 58 95 4.3 10.4 0.00 0.00 0.00 50 1013.7
20260507130021 57 94 4.3 11.3 0.00 0.00 0.00 48 1013.7
20260507124528 58 85 5.2 10.4 0.00 0.00 0.00 48 1013.7
20260507123019 57 103 9.6 14.8 0.00 0.00 0.00 49 1013.7
20260507121517 57 109 7.0 13.0 0.00 0.00 0.00 52 1013.6
20260507120018 57 101 10.4 15.6 0.00 0.00 0.00 52 1013.4
20260507114514 57 146 6.1 11.3 0.00 0.00 0.00 55 1013.3
20260507113015 57 79 6.1 12.2 0.00 0.00 0.00 60 1013.3
20260507111510 56 97 7.8 11.3 0.00 0.00 0.00 61 1013.2
20260507110010 57 95 7.0 13.9 0.00 0.00 0.00 63 1013.3
20260507104508 59 97 6.1 12.2 0.00 0.00 0.00 62 1013.2
20260507103008 57 75 6.1 13.0 0.00 0.00 0.00 67 1013.1
20260507101509 56 76 4.3 10.4 0.00 0.00 0.00 66 1013.1
20260507100001 57 146 1.7 9.6 0.00 0.00 0.00 65 1013.0
20260507094605 61 27 2.6 8.7 0.00 0.00 0.00 50 1013.0
20260507093056 63 80 6.1 10.4 0.00 0.00 0.00 49 1012.8
20260507091553 61 43 4.3 9.6 0.00 0.00 0.00 54 1012.8
20260507090050 61 36 3.5 9.6 0.00 0.00 0.00 56 1012.6
20260507084556 60 67 3.5 8.7 0.00 0.00 0.00 58 1012.5
20260507083044 61 44 2.6 8.7 0.00 0.00 0.00 55 1012.4
20260507081543 59 339 2.6 7.8 0.00 0.00 0.00 62 1012.4
20260507080037 57 319 0.9 5.2 0.00 0.00 0.00 66 1012.3
20260507074533 58 26 2.6 7.0 0.00 0.00 0.00 61 1012.2
20260507073029 56 19 1.7 8.7 0.00 0.00 0.00 64 1012.1
20260507071524 56 58 2.6 7.8 0.00 0.00 0.00 66 1012.2
20260507070028 56 5 2.6 8.7 0.00 0.00 0.00 66 1012.1
20260507064515 54 35 2.6 7.8 0.00 0.00 0.00 71 1012.0
20260507063010 53 30 2.6 7.8 0.00 0.00 0.00 73 1012.0
20260507061507 52 48 4.3 8.7 0.00 0.00 0.00 74 1011.9
20260507060004 51 35 2.6 7.8 0.00 0.00 0.00 76 1011.9
20260507054558 50 30 2.6 7.8 0.00 0.00 0.00 78 1011.8
20260507053053 49 73 2.6 6.1 0.00 0.00 0.00 80 1011.7
20260507051549 47 12 0.9 2.6 0.00 0.00 0.00 86 1011.5
20260507050046 44 35 0.0 2.6 0.00 0.00 0.00 89 1011.4
20260507044544 42 15 0.9 1.7 0.00 0.00 0.00 89 1011.3
20260507043040 41 12 0.0 1.7 0.00 0.00 0.00 89 1011.2
20260507041537 40 12 0.0 1.7 0.00 0.00 0.00 89 1011.1
20260507040036 39 12 0.9 1.7 0.00 0.00 0.00 89 1011.0
20260507034531 39 12 0.9 2.6 0.00 0.00 0.00 88 1010.9
20260507033031 40 21 0.0 0.9 0.00 0.00 0.00 88 1010.6
20260507031528 40 21 0.9 1.7 0.00 0.00 0.00 87 1010.4
20260507030025 40 21 0.9 2.6 0.00 0.00 0.00 87 1010.4
20260507024522 40 22 0.9 2.6 0.00 0.00 0.00 87 1010.4
20260507023020 41 22 0.0 1.7 0.00 0.00 0.00 86 1010.2
20260507021523 41 22 0.9 2.6 0.00 0.00 0.00 86 1010.1
20260507020018 41 22 0.9 3.5 0.00 0.00 0.00 85 1010.2
20260507014526 42 30 1.7 4.3 0.00 0.00 0.00 85 1010.1
20260507013028 43 351 0.9 2.6 0.00 0.00 0.00 84 1010.2
20260507011513 44 351 0.9 2.6 0.00 0.00 0.00 83 1010.1
20260507010010 44 72 1.7 3.5 0.00 0.00 0.00 83 1010.0
20260507004505 44 91 2.6 7.0 0.00 0.00 0.00 83 1009.8
20260507003004 44 55 1.7 4.3 0.00 0.00 0.00 82 1009.7
20260507001504 45 72 2.6 8.7 0.00 0.00 0.00 82 1009.5
20260506234559 45 83 2.6 7.0 0.00 0.00 0.00 82 1009.5
20260506233111 45 67 4.3 8.7 0.00 0.00 0.00 83 1009.6
20260506231601 45 82 2.6 7.8 0.00 0.00 0.00 83 1009.5
20260506230055 45 66 3.5 7.0 0.00 0.00 0.00 84 1009.6
20260506224553 45 32 1.7 5.2 0.00 0.00 0.00 83 1009.6
20260506223053 45 55 2.6 8.7 0.00 0.00 0.00 83 1009.4
20260506221549 45 63 1.7 5.2 0.00 0.00 0.00 83 1009.4
20260506220046 45 49 2.6 6.1 0.00 0.00 0.00 83 1009.4
20260506214544 45 61 3.5 10.4 0.00 0.00 0.00 83 1009.2
20260506213057 45 71 3.5 7.8 0.00 0.00 0.00 83 1009.2
20260506211540 45 61 3.5 9.6 0.00 0.00 0.00 83 1009.1
20260506210041 45 62 3.5 8.7 0.00 0.00 0.00 82 1009.2
20260506204539 45 74 6.1 10.4 0.00 0.00 0.00 82 1009.0
20260506203037 45 82 4.3 12.2 0.00 0.00 0.00 82 1009.0
20260506201536 45 79 3.5 11.3 0.00 0.00 0.00 82 1009.0
20260506200034 45 74 6.1 13.0 0.00 0.00 0.00 82 1008.8
20260506194532 45 94 8.7 12.2 0.00 0.00 0.00 82 1008.8
20260506193031 45 77 7.0 12.2 0.00 0.00 0.00 82 1008.7
20260506191529 45 74 7.8 13.9 0.00 0.00 0.00 83 1008.8
20260506190028 46 80 4.3 11.3 0.00 0.00 0.00 82 1008.7
20260506184540 46 65 7.8 14.8 0.00 0.00 0.00 82 1008.5
20260506183036 46 71 7.8 12.2 0.00 0.00 0.00 82 1008.3
20260506181526 46 91 6.1 13.9 0.00 0.00 0.00 81 1008.2
20260506180020 47 69 7.8 13.9 0.00 0.00 0.00 80 1008.1
20260506174521 47 88 4.3 14.8 0.00 0.00 0.00 80 1008.0
20260506173016 47 90 7.0 18.2 0.00 0.00 0.00 78 1007.9